Other Public Products
Issued by NWS Charleston, SC

Current Version | Previous Version | Text Only | Print | Product List | Glossary Off
Versions: 1 2 3 4 5 6 7 8 9 10 11 12 13 14 15 16 17 18 19 20 21 22 23 24 25 26 27 28 29 30 31 32 33 34 35 36 37 38 39 40 41 42 43 44 45 46 47 48 49 50

766
FPUS82 KCHS 250227
OPUCHS

TEST...KCHS/KSAV Gateway Observations...TEST
National Weather Service Charleston SC
1000 PM EDT TUE APR 24 2018

NOTE: "fair" indicates few or no clouds below 12,000 feet with no
significant weather and/or obstructions to visibility.

SCZ050-WAZ558-NCZ071-TXZ119-213-PAZ071-DCZ001-FLZ074-172-MI076-
NYZ176-178-MAZ016-IL014-TNZ027-NJZ106-GAZ044-MD014-250300-

...Gateway Observations for Charleston International...

CITY           SKY/WX    TMP DP  RH WIND       PRES   REMARKS
Chas Airport   FAIR      65  60  84 SW9       29.85R
Seattle        PTSUNNY   71  42  35 N10       30.04F
Charlotte      CLOUDY    63  62  97 CALM      29.80R
Dallas DFW     CLOUDY    74  48  39 E5        30.01R
Dallas Love    CLOUDY    76  49  38 E5        30.01R
Philladelphia  LGT RAIN  53  51  93 E8        30.13F
Wash National  LGT RAIN  55  52  89 NE12      30.00F FOG
Baltimore      LGT RAIN  53  53 100 E17       30.02F FOG
Miami          FAIR      78  71  79 W9        29.96S
Detroit        DRIZZLE   52  49  89 E6        29.99S FOG
Newark         LGT RAIN  55  48  77 E10G17    30.19F
Laguardia      CLOUDY    56  45  66 E9        30.21F
J F K          CLOUDY    54  45  71 E17       30.21F
Boston Logan   CLOUDY    53  37  54 S16       30.28R
Ft. Lauderdale CLOUDY    80  72  76 W12G21    29.95R
Chicago O`Hare FAIR      53  46  77 NE8       30.00R
Chicago Midway FAIR      54  48  80 NE8       30.00S
Houston Bush   MOCLDY    72  59  63 CALM      30.00R
Houston Hobby  MOCLDY    72  62  71 S7        30.01R
Nashville      CLOUDY    58  53  84 NW9       29.97R
Atlanta        MOCLDY    62  55  77 W12       29.90R

$$

GAZ044-118-TXZ119-213-NCZ071-DCZ001-MDZ014-506-PAZ021-071-NJZ106-
NYZ176-178-MAZ106-OHZ011-021-055-MIZ076-KYZ091-ILZ014-INZ047-
MNZ060-ONZ431-250300-

...Gateway Observations for Savannah International...

CITY           SKY/WX    TMP DP  RH WIND       PRES   REMARKS
Savannah Arpt  FAIR      67  55  65 SW3       29.88R
Atlanta        MOCLDY    62  55  77 W12       29.90R
Charlotte      CLOUDY    63  62  97 CALM      29.80R
Dallas DFW     CLOUDY    74  48  39 E5        30.01R
Houston Bush   MOCLDY    72  59  63 CALM      30.00R
Wash National  LGT RAIN  55  52  89 NE12      30.00F FOG
Wash Dulles    LGT RAIN  53  53 100 NE10      30.00F FOG
Baltimore      LGT RAIN  53  53 100 E17       30.02F FOG
Philadelphia   LGT RAIN  53  51  93 E8        30.13F
Newark         LGT RAIN  55  48  77 E10G17    30.19F
Laguardia      CLOUDY    56  45  66 E9        30.21F
J F K          CLOUDY    54  45  71 E17       30.21F
Boston         CLOUDY    53  37  54 S16       30.28R
Pittsburg      CLOUDY    51  50  96 E8        29.96F
Akron          CLOUDY    52  48  86 E10       29.95F
Cleveland      LGT RAIN  54  51  90 SE8       29.98S
Cincinnati     CLOUDY    54  53  97 NW6       29.91R
Columbus       CLOUDY    53  53 100 CALM      29.90S
Detroit        DRIZZLE   52  49  89 E6        29.99S FOG
Chicago O`Hare FAIR      53  46  77 NE8       30.00R
Minneapolis    FAIR      51  31  46 N9        30.20R
Indianapolis   CLOUDY    54  52  93 N7        29.96R
Toronto Canada LGT RAIN  50  48  93 NE3       30.07S FOG

$$




USA.gov is the U.S. government's official web portal to all federal, state and local government web resources and services.